Date,TemperatureHighF,TemperatureAvgF,TemperatureLowF,DewpointHighF,DewpointAvgF,DewpointLowF,HumidityHigh,HumidityAvg,HumidityLow,PressureMaxIn,PressureMinIn,WindSpeedMaxMPH,WindSpeedAvgMPH,GustSpeedMaxMPH,PrecipitationSumIn
2013-10-1,63,49,46,52,45,40,95,87,47,30.00,29.77,6,0,6,0.52
2013-10-2,60,47,42,52,45,41,95,93,73,30.09,29.97,7,0,7,0.27
2013-10-3,78,50,37,62,43,36,95,80,33,30.39,30.09,0,0,0,0.00
2013-10-4,75,52,40,54,44,38,95,76,36,30.39,30.27,1,0,0,0.01
2013-10-5,68,58,53,52,47,17,87,67,23,30.27,30.06,9,0,9,0.00
2013-10-6,90,62,47,67,48,42,94,66,27,30.06,29.71,50,1,50,0.03
2013-10-7,80,56,52,65,49,41,93,78,38,30.71,27.76,0,0,0,0.16
2013-10-8,80,53,45,53,43,36,92,69,27,30.12,27.46,0,0,0,0.01
2013-10-9,73,51,40,59,40,37,93,69,37,30.06,29.85,0,0,0,0.00
2013-10-10,62,51,43,46,43,40,90,74,45,29.97,29.83,0,0,0,0.02
2013-10-11,69,50,40,58,43,38,94,78,56,30.06,29.97,0,0,0,0.00
2013-10-12,74,50,43,60,43,38,92,78,38,30.12,29.97,0,0,0,0.01
2013-10-13,70,48,40,63,42,37,94,81,41,30.30,30.12,0,0,0,0.00
2013-10-14,73,48,38,63,42,36,95,83,57,30.36,30.30,0,0,0,0.00
2013-10-15,68,48,41,63,44,40,95,88,59,30.42,29.53,16,0,16,0.00
2013-10-16,66,48,41,62,45,40,95,88,70,30.12,30.06,0,0,0,0.00
2013-10-17,54,47,40,50,44,38,95,92,79,30.21,30.12,0,0,0,0.00
2013-10-18,58,47,41,50,44,40,95,90,61,30.18,30.06,0,0,0,0.00
2013-10-19,62,49,45,48,45,44,95,88,60,30.12,28.64,0,0,0,0.00
2013-10-20,62,50,47,51,46,43,93,84,65,30.12,30.06,16,0,16,0.00
2013-10-21,62,50,47,49,46,44,95,88,64,30.09,30.03,0,0,0,0.01
2013-10-22,57,48,44,50,45,43,95,92,71,30.06,29.94,0,0,0,0.00
2013-10-23,62,46,40,52,44,38,95,92,64,29.97,29.88,0,0,0,0.00
2013-10-24,53,46,39,50,44,38,95,93,85,30.03,29.94,0,0,0,0.00
2013-10-25,60,49,44,50,45,42,95,88,67,30.24,27.17,16,0,16,0.00
2013-10-26,61,52,47,47,45,43,91,79,60,30.27,30.06,0,0,0,0.00
2013-10-27,86,52,47,83,44,30,94,78,42,30.06,29.85,36,0,36,0.10
2013-10-28,56,48,42,38,31,24,78,54,30,29.97,29.85,36,1,36,0.00
2013-10-29,53,43,33,41,33,28,92,71,40,29.94,29.88,0,0,0,0.00
2013-10-30,59,47,37,46,39,34,94,75,43,30.03,29.94,7,0,7,0.14
2013-10-31,51,49,47,48,47,45,95,93,88,30.15,29.97,36,0,36,0.26